Location: La Crau
(43.1498°N, 6.0742°E)
Time: 11:24:06
(UTC+00:00)

Daily predictions for brighter satellites

Satellite Brightness Start Highest point End
(mag) Time Altitude Azimuth Time Altitude Azimuth Time Altitude Azimuth
NOAA 11 4.2 17:03:13 10° SSE 17:08:43 78° ENE 17:14:13 10° N
AQUARIUS 4.2 17:05:05 10° SSE 17:09:35 90° ENE 17:14:07 10° NNW
Cosmos-2242 4.4 17:07:20 10° NNE 17:10:20 18° ENE 17:13:21 10° ESE
NOSS 3-1 (C) 4.1 17:05:12 10° NNW 17:12:43 68° NE 17:21:24 10° SE
Cosmos 1937 Rocket 3.9 17:09:40 10° S 17:14:44 47° ESE 17:19:50 10° NNE
COSMO-SKYMED 1 3.2 17:10:52 10° NNE 17:14:54 36° E 17:18:54 10° SSE
BREEZE-M DEB (TANK) 3.4 17:13:17 10° NW 17:15:07 20° N 17:16:59 10° ENE
Okean 1-7 Rocket 4.2 17:12:11 10° SSW 17:16:43 65° W 17:21:16 10° N
OE (NEXTSAT) 4.3 17:14:38 10° WNW 17:18:05 84° NNE 17:21:32 10° ESE
Aureole 3 2.5 17:15:10 10° N 17:18:13 76° E 17:21:11 10° SSE
USA 290 3.6 17:19:49 10° NNE 17:22:14 19° ENE 17:24:38 10° ESE
NOSS 2-1 (C) 3.5 17:19:35 10° SW 17:22:53 56° NW 17:26:16 10° NNE
Cosmos 1833 Rocket 3.2 17:20:55 10° N 17:26:10 38° ENE 17:31:22 10° SE
H-2A R/B 2.9 17:23:03 10° ESE 17:27:16 27° ENE 17:31:36 10° N
Lacrosse 5 4.3 17:24:04 10° WNW 17:28:15 27° WSW 17:32:26 10° S
Meteor 1-21 Rocket 4.3 17:22:44 10° S 17:28:16 87° W 17:33:53 10° N
NOSS 2-1 (D) 3.8 17:25:35 10° SW 17:28:50 47° NW 17:32:10 10° NNE
Cosmos 1939 Rocket 2.8 17:25:19 10° SSE 17:29:23 72° ENE 17:33:25 10° N
Helios 1A Rocket 4.3 17:26:59 10° ESE 17:29:54 19° ENE 17:32:50 10° NNE
H-2A R/B 2.8 17:27:49 10° N 17:32:07 57° WNW 17:36:17 10° SSW
Cosmos 1602 Rocket 3.5 17:28:09 10° S 17:32:29 72° E 17:36:52 10° NNE
Cosmos 2344 4.4 17:23:25 10° NNW 17:32:35 59° NE 17:45:18 10° SE
Cosmos 44 4.3 17:28:10 10° WSW 17:32:48 46° NW 17:37:45 10° NNE
Cosmos 2026 Rocket 4.1 17:27:42 10° SSE 17:33:39 55° E 17:39:43 10° NNE
USA 229 DEB 3.9 17:26:51 10° NNW 17:34:09 67° NE 17:41:49 10° SE
USA 229 3.9 17:26:58 10° NNW 17:34:16 66° NE 17:41:56 10° SE
Feng Yun 1-1 Rocket 4.2 17:29:17 10° SSE 17:34:41 66° ENE 17:40:16 10° N
CZ-3B R/B 2.5 17:32:26 10° NW 17:35:06 44° NE 17:42:39 10° ESE
SJ 16-02 3.3 17:31:57 10° SW 17:35:48 29° WNW 17:39:39 10° N
CSL-04 DEB 4.3 17:32:40 10° NNE 17:36:48 84° ESE 17:40:47 10° SSW
YAOGAN 1 3.3 17:35:00 10° SE 17:38:47 31° ENE 17:42:36 10° N
Cosmos 2112 Rocket 4.1 17:33:43 10° NNW 17:38:57 81° WSW 17:44:07 10° SSE
Cosmos 990 Rocket 4.4 17:33:57 10° SSW 17:39:07 66° WNW 17:44:18 10° NNE
Cosmos 1844 Rocket 4.3 17:36:06 10° WSW 17:41:07 32° NW 17:46:09 10° N
Cosmos 1689 Rocket 3.2 17:41:34 18° ENE 17:42:41 22° E 17:45:00 10° SSE
Cosmos 1553 Rocket 4.4 17:37:18 10° N 17:43:15 39° ENE 17:49:06 10° SE
Aureole 3 Rocket 2.8 17:40:41 10° N 17:43:57 51° E 17:48:03 10° SSE
COSMOS 2406 3.2 17:39:54 10° NNW 17:45:39 62° ENE 17:51:20 10° SE
Cosmos 2082 Rocket 2.9 17:40:50 10° N 17:45:55 31° NE 17:50:57 10° ESE
Cosmos 1703 3.7 17:42:42 10° SSW 17:46:33 63° W 17:50:24 10° N
Cosmos 1825 Rocket 4.0 17:43:28 10° SSE 17:47:34 40° E 17:51:43 10° NNE
IRS-1C Rocket 4.1 17:43:02 10° SSE 17:48:12 63° ENE 17:53:25 10° N
X-37B 0.5 17:46:30 10° WNW 17:49:41 79° NNE 17:51:36 22° E
NOSS 3-1 (A) 4.1 17:42:18 10° NNW 17:49:53 72° NE 17:58:37 10° SE
ISS -1.8 17:49:52 10° NW 17:52:22 19° N 17:53:50 15° NNE
Cosmos 1812 Rocket 3.6 17:48:52 10° N 17:53:16 83° W 17:57:35 10° S
Okean O Rocket 3.4 17:50:07 10° SSW 17:54:12 36° W 17:58:17 10° NNW
CZ-4 R/B 1.4 17:54:27 10° SSE 17:58:24 56° ENE 18:02:17 10° N
Iridium 4 Rocket 3.4 17:56:16 10° N 18:01:37 79° E 18:06:27 10° S
CSL-04 Rocket 4.1 17:57:50 10° SE 18:02:49 38° ENE 18:07:52 10° N
ERS-2 2.0 17:59:24 10° NNE 18:03:02 67° ESE 18:06:38 10° S
SKYMED 2 3.9 17:58:43 10° N 18:03:03 67° WNW 18:07:21 10° SSW
Okean-O 2.6 18:01:30 10° SSE 18:05:51 61° ENE 18:10:14 10° N
S3M 4.2 18:03:59 10° N 18:09:47 42° ENE 18:15:33 10° SSE
Cosmos 1340 4.1 18:06:38 10° SW 18:10:09 38° WNW 18:13:42 10° N
Cosmos 1346 Rocket 2.6 18:06:40 10° S 18:10:35 76° E 18:14:32 10° NNE
Cosmos 1655 Rocket 4.3 18:05:07 10° SSE 18:10:51 41° E 18:16:36 10° NNE
Cosmos 2278 Rocket 2.2 18:05:21 10° SSW 18:11:01 89° WNW 18:16:45 10° NNE
Cosmos 1953 Rocket 3.6 18:09:49 10° S 18:14:02 51° E 18:17:57 12° NNE
CZ-2C R/B 3.6 18:08:56 10° S 18:14:21 70° WSW 18:20:05 10° NNW
SWARM C 4.5 18:13:28 10° SSE 18:16:43 58° E 18:18:11 29° NNE
SWARM A 4.1 18:13:33 10° S 18:16:49 62° E 18:18:52 21° NNE
Cosmos 2292 Rocket 3.7 18:13:59 10° S 18:18:50 49° E 18:20:41 28° NE
Cosmos 1892 4.1 18:15:42 10° SSE 18:17:22 22° SE 18:17:22 22° SE
SAR-Lupe-4 3.5 18:17:50 13° NNE 18:20:58 89° WNW 18:24:32 10° SSW
Cosmos 44 Rocket 3.4 18:16:32 10° SSW 18:21:17 54° ESE 18:23:19 32° ENE
Cosmos 405 4.3 18:20:03 10° NNW 18:23:25 42° W 18:26:44 10° SSW
ARGOS 3.0 18:22:36 10° SSE 18:27:54 67° ENE 18:33:15 10° N
DMSP B5D1-3 4.4 18:24:41 10° NNE 18:29:48 77° ESE 18:34:54 10° S
Cosmos 1869 4.3 18:27:55 10° N 18:30:11 31° NNE 18:30:11 31° NNE
PSLV R/B 4.5 18:30:09 10° N 18:34:19 61° WNW 18:38:27 10° SSW
Cosmos 372 Rocket 4.3 18:29:31 10° SSW 18:34:41 66° WNW 18:39:55 10° NNE
CZ-4B R/B 4.2 18:35:30 10° NNW 18:37:43 17° WNW 18:39:53 10° WSW
Cosmos 468 4.4 18:33:49 10° NNW 18:39:03 62° ENE 18:41:13 34° SE
CZ-2C R/B 2.7 18:33:59 10° NNE 18:39:31 58° E 18:45:03 10° S
Cosmos 494 Rocket 4.3 18:38:00 10° N 18:42:30 44° NE 18:42:30 44° NE
Cosmos 2150 Rocket 3.8 18:38:44 10° SSW 18:43:52 76° ESE 18:45:58 37° NNE
TRAILBLAZER 4.5 18:41:14 10° NNW 18:45:53 80° NE 18:46:35 63° SE
Cosmos 1048 Rocket 3.8 18:42:53 10° NNW 18:48:02 73° ENE 18:49:37 44° SE
Cosmos-2242 4.4 18:44:02 10° NNW 18:48:04 39° W 18:52:05 10° SSW
Cosmos 2297 3.8 18:46:10 10° S 18:51:23 51° ESE 18:51:23 51° ESE
SL-08 RB Rocket 3.6 18:59:18 76° S 18:59:39 86° W 19:04:10 10° NNW
CSL-04 Debris 4.5 18:56:27 10° S 19:01:47 65° WSW 19:07:09 10° NNW
Helios 1A Rocket 4.3 19:00:53 10° S 19:04:46 39° W 19:08:41 10° NNW
H-2A R/B 3.4 19:01:49 10° SSW 19:06:31 39° W 19:11:21 10° NNW
Cosmos 1125 Rocket 3.4 19:03:18 10° SSW 19:08:32 89° W 19:08:41 85° N
Cosmos 1809 Rocket 4.5 19:02:43 10° SSW 19:08:50 79° W 19:15:02 10° N
Cosmos 1833 Rocket 4.3 19:05:01 10° NW 19:09:58 33° WSW 19:14:54 10° SSW
Cosmos 2266 Rocket 3.9 19:06:45 10° S 19:13:00 82° W 19:19:11 10° N
USA 267 4.5 19:19:53 26° SSE 19:19:53 26° SSE 19:23:09 10° S
X-37B 3.9 19:23:20 10° W 19:23:54 14° W 19:23:54 14° W
Cosmos 1943 Rocket 3.9 19:21:33 10° S 19:23:18 21° S 19:23:18 21° S
Cosmos 2082 Rocket 3.3 19:24:45 10° NW 19:30:06 42° WSW 19:33:41 19° SSW
Cosmos 2315 Rocket 4.4 19:41:20 10° NNW 19:46:33 58° NW 19:46:33 58° NW
USA 234 4.4 19:53:13 33° N 19:53:13 33° N 19:57:38 10° NW
CZ-4C R/B 4.5 19:54:15 10° NNW 19:56:58 19° N 19:56:58 19° N
ATLAS 5 CENTAUR R/B 4.5 20:20:53 10° SW 20:39:15 59° SW 20:39:15 59° SW
